Location: Caracas
(10.5033°N, 66.8422°W)
Time: 01:09:23
(UTC-04:00)

Vanguard 3 - Visible Passes

Search period start: 19 November 2017 00:00
Search period end: 29 November 2017 00:00
Orbit: 509 x 3263 km, 33.4° (Epoch: 17 November)

Date Brightness Start Highest point End Pass type
(mag) Time Alt. Az. Time Alt. Az. Time Alt. Az.
19 Nov 10.1 02:17:01 56° E 02:17:01 56° E 02:29:01 10° ESE visible
19 Nov 9.8 04:21:36 40° W 04:28:45 56° SW 04:42:00 10° SE visible
19 Nov 10.0 20:06:28 10° WNW 20:14:49 29° N 20:18:22 26° NNE visible
19 Nov 11.0 22:21:37 10° NW 22:22:56 13° NW 22:22:56 13° NW visible
20 Nov 11.0 01:07:27 24° E 01:07:27 24° E 01:12:33 10° E visible
20 Nov 9.7 03:12:02 80° SW 03:12:25 80° SW 03:28:13 10° SE visible
20 Nov 10.4 05:16:37 16° W 05:27:46 30° SW 05:38:33 10° SSE visible
20 Nov 9.5 18:51:58 10° WNW 18:58:42 32° NNW 19:08:35 12° NE visible
20 Nov 10.3 21:06:40 10° NW 21:13:09 25° NNW 21:13:09 25° NNW visible
20 Nov11.523:57:50E23:57:50E23:17:43NWvisible
21 Nov 10.3 02:02:25 50° ESE 02:02:25 50° ESE 02:13:11 10° ESE visible
21 Nov 10.0 04:07:00 43° WSW 04:12:05 50° SW 04:26:02 10° SSE visible
21 Nov 10.0 19:51:58 10° NW 19:59:32 25° N 20:03:21 22° NNE visible
21 Nov 10.9 22:06:21 10° NW 22:07:55 14° NW 22:07:55 14° NW visible
22 Nov 11.2 00:52:44 20° E 00:52:44 20° E 00:56:41 10° ESE visible
22 Nov 9.8 02:57:19 70° S 02:57:19 70° S 03:12:14 10° SE visible
22 Nov 10.6 05:01:54 18° W 05:11:23 27° SW 05:22:22 10° S visible
22 Nov 9.6 18:37:31 10° WNW 18:43:31 26° N 18:52:49 10° NE visible
22 Nov 10.3 20:51:51 10° NW 20:58:06 24° N 20:58:06 24° N visible
22 Nov11.423:43:00E23:43:00E23:02:40NWvisible
23 Nov 10.5 01:47:34 43° ESE 01:47:34 43° ESE 01:57:10 10° ESE visible
23 Nov 10.2 03:52:09 42° WSW 03:55:24 44° SW 04:09:55 10° SSE visible
23 Nov 11.0 06:08:26 10° SW 06:11:07 11° SW 06:13:38 10° SSW visible
23 Nov 10.0 19:37:30 10° NW 19:44:18 22° N 19:48:18 19° NNE visible
23 Nov 10.7 21:51:02 10° NW 21:52:52 15° NNW 21:52:52 15° NNW visible
24 Nov 11.3 00:37:46 17° ESE 00:37:46 17° ESE 00:40:38 10° ESE visible
24 Nov 10.1 02:42:20 59° S 02:42:20 59° S 02:56:04 10° SE visible
24 Nov 10.7 04:46:54 18° WSW 04:55:02 23° SW 05:06:01 10° S visible
24 Nov 9.7 18:23:11 10° NW 18:28:24 21° N 18:35:58 10° NE visible
24 Nov 10.2 20:37:00 10° NW 20:43:03 23° N 20:43:03 23° N visible
25 Nov 10.6 01:32:28 37° SE 01:32:28 37° SE 01:40:58 10° SE visible
25 Nov 10.3 03:37:01 39° SW 03:38:42 39° SW 03:53:37 10° SSE visible
25 Nov 10.0 19:23:05 10° NW 19:29:06 19° N 19:33:15 16° NNE visible
25 Nov 10.6 21:35:41 10° NW 21:37:49 17° NNW 21:37:49 17° NNW visible
26 Nov 11.4 00:22:32 15° ESE 00:22:32 15° ESE 00:24:25 10° ESE visible
26 Nov 10.3 02:27:05 50° S 02:27:05 50° S 02:39:44 10° SE visible
26 Nov 10.9 04:31:38 17° WSW 04:38:46 21° SW 04:49:28 10° S visible
26 Nov 9.7 18:09:03 10° NW 18:13:21 17° N 18:19:09 10° NE visible
26 Nov 10.1 20:22:05 10° NNW 20:28:03 23° N 20:28:03 23° N visible
27 Nov 10.8 01:17:04 32° SE 01:17:04 32° SE 01:24:34 10° SE visible
27 Nov 10.5 03:21:37 35° SW 03:22:04 35° SW 03:37:08 10° SSE visible
27 Nov 10.0 19:08:41 10° NNW 19:13:56 17° N 19:18:17 14° NE visible
27 Nov 10.4 21:20:18 10° NW 21:22:51 19° NNW 21:22:51 19° NNW visible
28 Nov 11.5 00:06:59 12° ESE 00:06:59 12° ESE 00:08:00 10° ESE visible
28 Nov 10.5 02:11:31 42° S 02:11:31 42° S 02:23:12 10° SSE visible
28 Nov 11.1 04:16:03 15° WSW 04:22:36 18° SW 04:32:41 10° S visible
28 Nov 9.9 20:07:05 10° NNW 20:13:08 23° N 20:13:08 23° N visible
